Location: Terra Rouge Observatory
(46.0000°N, 62.7500°W)
Time: 05:23:59
(UTC-04:00)

NOSS 3-1 (A) - Visible Passes

Search period start: 27 November 2014 00:00
Search period end: 07 December 2014 00:00
Orbit: 890 x 1323 km, 63.4° (Epoch: 25 November)

Date Brightness Start Highest point End Pass type
(mag) Time Alt. Az. Time Alt. Az. Time Alt. Az.
27 Nov 5.4 18:11:33 10° NW 18:16:11 19° N 18:19:39 14° NNE visible
27 Nov 5.4 20:03:48 10° NNW 20:07:06 22° N 20:07:06 22° N visible
28 Nov 5.3 17:26:00 10° NW 17:30:43 20° N 17:35:46 10° NE visible
28 Nov 5.2 19:19:00 10° NNW 19:23:51 23° NNE 19:23:51 23° NNE visible
28 Nov 6.0 21:09:57 10° NW 21:11:17 16° NNW 21:11:17 16° NNW visible
29 Nov 5.3 18:34:02 10° NW 18:39:00 20° N 18:40:37 19° NNE visible
29 Nov 5.5 20:25:19 10° NNW 20:28:03 23° NNW 20:28:03 23° NNW visible
30 Nov 5.3 17:48:50 10° NW 17:53:32 19° N 17:57:24 13° NE visible
30 Nov 5.1 19:40:40 10° NNW 19:44:51 27° N 19:44:51 27° N visible
30 Nov 6.2 21:31:26 10° NW 21:32:17 14° NW 21:32:17 14° NW visible
01 Dec 5.3 17:03:25 10° NW 17:08:03 19° N 17:13:00 10° NE visible
01 Dec 5.0 18:55:56 10° NNW 19:01:39 25° NNE 19:01:39 25° NNE visible
01 Dec 5.6 20:46:47 10° NW 20:49:06 23° NNW 20:49:06 23° NNW visible
02 Dec 5.2 18:11:05 10° NNW 18:16:18 22° NNE 18:18:30 19° NE visible
02 Dec 5.1 20:02:09 10° NNW 20:05:57 31° NNW 20:05:57 31° NNW visible
02 Dec 6.4 21:53:07 10° NW 21:53:25 11° NW 21:53:25 11° NW visible
03 Dec 5.3 17:26:02 10° NW 17:30:52 19° N 17:35:24 12° NE visible
03 Dec 4.7 19:17:30 10° NNW 19:22:51 34° NNE 19:22:51 34° NNE visible
03 Dec 5.8 21:08:19 10° NW 21:10:18 21° NW 21:10:18 21° NW visible
04 Dec 4.8 18:32:50 10° NNW 18:38:54 28° NNE 18:39:47 28° NE visible
04 Dec 5.1 20:23:37 10° NW 20:27:15 33° NNW 20:27:15 33° NNW visible
05 Dec 5.0 17:48:03 10° NNW 17:53:35 24° NNE 17:56:47 18° NE visible
05 Dec 4.5 19:38:58 10° NW 19:44:15 45° N 19:44:15 45° N visible
05 Dec 6.1 21:30:07 10° NW 21:31:43 17° NW 21:31:43 17° NW visible
06 Dec 5.2 17:03:08 10° NW 17:08:11 21° NNE 17:13:35 10° ENE visible
06 Dec 4.3 18:54:20 10° NNW 19:01:11 42° NE 19:01:20 42° NE visible
06 Dec 5.3 20:45:13 10° NW 20:48:48 32° NW 20:48:48 32° NW visible
